Time,TemperatureF,DewpointF,PressureIn,WindDirection,WindDirectionDegrees,WindSpeedMPH,WindSpeedGustMPH,Humidity,HourlyPrecipIn,Conditions,Clouds,dailyrainin,SoftwareType,DateUTC
2013-02-20 01:05:00,52.3,32.7,30.34,West,261,2.0,4.0,47,0.00,CLR,,0.00,WeatherDisplay:10.37,2013-02-20 00:05:00,
2013-02-20 01:10:00,52.3,32.2,30.34,West,270,1.0,2.0,46,0.00,CLR,,0.00,WeatherDisplay:10.37,2013-02-20 00:10:00,
2013-02-20 01:15:00,52.3,32.2,30.33,SW,235,2.0,4.0,46,0.00,CLR,,0.00,WeatherDisplay:10.37,2013-02-20 00:15:00,
2013-02-20 01:20:00,52.2,32.0,30.33,WSW,240,0.0,2.0,46,0.00,CLR,,0.00,WeatherDisplay:10.37,2013-02-20 00:20:00,
2013-02-20 01:25:00,52.2,31.4,30.33,West,270,2.0,4.0,45,0.00,CLR,,0.00,WeatherDisplay:10.37,2013-02-20 00:25:00,
2013-02-20 01:30:00,52.2,32.0,30.33,West,270,0.0,3.0,46,0.00,CLR,,0.00,WeatherDisplay:10.37,2013-02-20 00:30:00,
2013-02-20 01:35:00,52.2,32.0,30.33,WSW,246,1.0,2.0,46,0.00,CLR,,0.00,WeatherDisplay:10.37,2013-02-20 00:35:00,
2013-02-20 01:40:00,52.0,31.8,30.33,South,187,1.0,2.0,46,0.00,CLR,,0.00,WeatherDisplay:10.37,2013-02-20 00:40:00,
2013-02-20 01:45:00,52.0,31.8,30.32,South,180,1.0,2.0,46,0.00,CLR,,0.00,WeatherDisplay:10.37,2013-02-20 00:45:00,
2013-02-20 01:50:00,52.0,31.8,30.33,South,180,1.0,2.0,46,0.00,CLR,,0.00,WeatherDisplay:10.37,2013-02-20 00:50:00,
2013-02-20 01:55:00,51.6,32.0,30.33,South,180,0.0,1.0,47,0.00,CLR,,0.00,WeatherDisplay:10.37,2013-02-20 00:55:00,
2013-02-20 02:00:00,51.4,31.9,30.33,SE,135,0.0,0.0,47,0.00,CLR,,0.00,WeatherDisplay:10.37,2013-02-20 01:00:00,
2013-02-20 02:05:00,51.4,31.9,30.33,East,90,0.0,2.0,47,0.00,CLR,,0.00,WeatherDisplay:10.37,2013-02-20 01:05:00,
2013-02-20 02:10:00,51.1,32.1,30.34,East,90,0.0,0.0,48,0.00,CLR,,0.00,WeatherDisplay:10.37,2013-02-20 01:10:00,
2013-02-20 02:15:00,51.1,32.1,30.34,SSE,158,0.0,1.0,48,0.00,CLR,,0.00,WeatherDisplay:10.37,2013-02-20 01:15:00,
2013-02-20 02:20:00,50.9,31.9,30.34,WSW,247,0.0,0.0,48,0.00,CLR,,0.00,WeatherDisplay:10.37,2013-02-20 01:20:00,
2013-02-20 02:25:00,50.9,31.9,30.34,SW,225,0.0,0.0,48,0.00,CLR,,0.00,WeatherDisplay:10.37,2013-02-20 01:25:00,
2013-02-20 02:30:00,50.9,31.9,30.34,SSW,202,0.0,0.0,48,0.00,CLR,,0.00,WeatherDisplay:10.37,2013-02-20 01:30:00,
2013-02-20 02:35:00,50.9,32.4,30.34,SW,236,0.0,2.0,49,0.00,CLR,,0.00,WeatherDisplay:10.37,2013-02-20 01:35:00,
2013-02-20 02:40:00,51.1,32.1,30.34,West,263,2.0,4.0,48,0.00,CLR,,0.00,WeatherDisplay:10.37,2013-02-20 01:40:00,
2013-02-20 02:45:00,51.3,31.7,30.34,West,261,1.0,3.0,47,0.00,CLR,,0.00,WeatherDisplay:10.37,2013-02-20 01:45:00,
2013-02-20 02:50:00,51.4,31.9,30.34,West,270,1.0,4.0,47,0.00,CLR,,0.00,WeatherDisplay:10.37,2013-02-20 01:50:00,
2013-02-20 02:55:00,51.4,31.9,30.34,West,270,1.0,3.0,47,0.00,CLR,,0.00,WeatherDisplay:10.37,2013-02-20 01:55:00,
2013-02-20 03:00:00,51.4,31.9,30.34,West,259,1.0,3.0,47,0.00,CLR,,0.00,WeatherDisplay:10.37,2013-02-20 02:00:00,
2013-02-20 03:05:00,51.4,31.9,30.34,WSW,247,1.0,3.0,47,0.00,CLR,,0.00,WeatherDisplay:10.37,2013-02-20 02:05:00,
2013-02-20 03:10:00,51.3,32.2,30.34,SW,225,1.0,2.0,48,0.00,CLR,,0.00,WeatherDisplay:10.37,2013-02-20 02:10:00,
2013-02-20 03:15:00,51.3,32.2,30.34,West,270,1.0,3.0,48,0.00,CLR,,0.00,WeatherDisplay:10.37,2013-02-20 02:15:00,
2013-02-20 03:20:00,51.3,32.2,30.34,WNW,292,1.0,2.0,48,0.00,CLR,,0.00,WeatherDisplay:10.37,2013-02-20 02:20:00,
2013-02-20 03:25:00,51.3,32.2,30.34,East,90,0.0,0.0,48,0.00,CLR,,0.00,WeatherDisplay:10.37,2013-02-20 02:25:00,
2013-02-20 03:30:00,51.1,32.6,30.34,East,90,1.0,3.0,49,0.00,CLR,,0.00,WeatherDisplay:10.37,2013-02-20 02:30:00,
2013-02-20 03:35:00,50.9,32.4,30.34,East,90,0.0,1.0,49,0.00,CLR,,0.00,WeatherDisplay:10.37,2013-02-20 02:35:00,
2013-02-20 03:40:00,50.9,32.4,30.34,East,90,0.0,0.0,49,0.00,CLR,,0.00,WeatherDisplay:10.37,2013-02-20 02:40:00,
2013-02-20 03:45:00,50.7,32.2,30.34,East,90,0.0,0.0,49,0.00,CLR,,0.00,WeatherDisplay:10.37,2013-02-20 02:45:00,
2013-02-20 03:50:00,50.5,32.6,30.34,East,90,0.0,0.0,50,0.00,CLR,,0.00,WeatherDisplay:10.37,2013-02-20 02:50:00,
2013-02-20 03:55:00,50.4,32.4,30.34,SE,124,0.0,2.0,50,0.00,CLR,,0.00,WeatherDisplay:10.37,2013-02-20 02:55:00,
2013-02-20 04:00:00,50.4,32.9,30.34,SE,124,0.0,2.0,51,0.00,CLR,,0.00,WeatherDisplay:10.37,2013-02-20 03:00:00,
2013-02-20 04:05:00,50.4,32.9,30.34,East,90,0.0,0.0,51,0.00,CLR,,0.00,WeatherDisplay:10.37,2013-02-20 03:05:00,
2013-02-20 04:10:00,50.4,33.4,30.35,SSE,158,0.0,0.0,52,0.00,CLR,,0.00,WeatherDisplay:10.37,2013-02-20 03:10:00,
2013-02-20 04:20:00,50.0,33.1,30.35,West,270,1.0,2.0,52,0.00,CLR,,0.00,WeatherDisplay:10.37,2013-02-20 03:20:00,
2013-02-20 04:25:00,49.8,33.4,30.35,West,270,1.0,2.0,53,0.00,CLR,,0.00,WeatherDisplay:10.37,2013-02-20 03:25:00,
2013-02-20 04:30:00,49.8,33.4,30.35,West,270,0.0,0.0,53,0.00,CLR,,0.00,WeatherDisplay:10.37,2013-02-20 03:30:00,
2013-02-20 04:35:00,49.6,33.2,30.36,WSW,247,0.0,0.0,53,0.00,CLR,,0.00,WeatherDisplay:10.37,2013-02-20 03:35:00,
2013-02-20 04:40:00,49.5,33.5,30.36,WSW,241,1.0,2.0,54,0.00,CLR,,0.00,WeatherDisplay:10.37,2013-02-20 03:40:00,
2013-02-20 04:45:00,49.5,33.5,30.36,WNW,299,0.0,1.0,54,0.00,CLR,,0.00,WeatherDisplay:10.37,2013-02-20 03:45:00,
2013-02-20 04:50:00,49.5,33.5,30.37,West,270,0.0,0.0,54,0.00,CLR,,0.00,WeatherDisplay:10.37,2013-02-20 03:50:00,
2013-02-20 04:55:00,49.5,33.5,30.37,West,281,0.0,1.0,54,0.00,CLR,,0.00,WeatherDisplay:10.37,2013-02-20 03:55:00,
2013-02-20 05:00:00,49.5,33.5,30.37,NNW,330,1.0,2.0,54,0.00,CLR,,0.00,WeatherDisplay:10.37,2013-02-20 04:00:00,
2013-02-20 05:05:00,49.6,33.7,30.37,WNW,303,1.0,2.0,54,0.00,CLR,,0.00,WeatherDisplay:10.37,2013-02-20 04:05:00,
2013-02-20 05:10:00,50.0,34.5,30.37,West,281,1.0,2.0,55,0.00,CLR,,0.00,WeatherDisplay:10.37,2013-02-20 04:10:00,
2013-02-20 05:15:00,50.2,34.2,30.37,East,90,0.0,0.0,54,0.00,CLR,,0.00,WeatherDisplay:10.37,2013-02-20 04:15:00,
2013-02-20 05:20:00,50.4,34.3,30.37,ESE,113,0.0,0.0,54,0.00,CLR,,0.00,WeatherDisplay:10.37,2013-02-20 04:20:00,
2013-02-20 05:25:00,50.5,34.5,30.37,East,90,0.0,0.0,54,0.00,CLR,,0.00,WeatherDisplay:10.37,2013-02-20 04:25:00,
2013-02-20 05:30:00,50.9,34.8,30.37,East,90,0.0,0.0,54,0.00,CLR,,0.00,WeatherDisplay:10.37,2013-02-20 04:30:00,
2013-02-20 05:35:00,51.3,35.2,30.37,SSE,158,0.0,0.0,54,0.00,CLR,,0.00,WeatherDisplay:10.37,2013-02-20 04:35:00,
2013-02-20 05:40:00,51.6,35.0,30.37,SSE,158,0.0,1.0,53,0.00,CLR,,0.00,WeatherDisplay:10.37,2013-02-20 04:40:00,
2013-02-20 05:45:00,51.6,35.0,30.37,South,180,0.0,1.0,53,0.00,CLR,,0.00,WeatherDisplay:10.37,2013-02-20 04:45:00,
2013-02-20 05:50:00,52.0,35.4,30.37,SW,225,0.0,0.0,53,0.00,CLR,,0.00,WeatherDisplay:10.37,2013-02-20 04:50:00,
2013-02-20 06:59:00,51.6,35.0,30.37,SE,135,1.2,0.0,53,0.00,CLR,,0.00,WeatherDisplay:10.37,2013-02-20 05:59:00,
2013-02-20 07:00:00,51.6,35.0,30.37,SE,135,1.2,0.0,53,0.00,CLR,,0.00,WeatherDisplay:10.37,2013-02-20 06:00:00,
2013-02-20 09:15:00,57.3,34.9,30.02,NE,38,0.0,0.0,43,0.00,CLR,,0.00,WeatherDisplay:10.37,2013-02-20 08:15:00,
2013-02-20 09:20:00,57.3,34.9,30.02,North,0,0.0,0.0,43,0.00,CLR,,0.00,WeatherDisplay:10.37,2013-02-20 08:20:00,
2013-02-20 09:25:00,57.3,34.9,30.02,North,0,0.0,0.0,43,0.00,CLR,,0.00,WeatherDisplay:10.37,2013-02-20 08:25:00,
2013-02-20 09:30:00,57.3,34.9,30.02,North,0,0.0,0.0,43,0.00,CLR,,0.00,WeatherDisplay:10.37,2013-02-20 08:30:00,
2013-02-20 09:35:00,57.3,34.9,30.02,North,0,0.0,0.0,43,0.00,CLR,,0.00,WeatherDisplay:10.37,2013-02-20 08:35:00,
2013-02-20 09:40:00,57.3,34.9,30.02,North,0,0.0,0.0,43,0.00,CLR,,0.00,WeatherDisplay:10.37,2013-02-20 08:40:00,
2013-02-20 09:45:00,57.3,34.9,30.02,North,0,0.0,0.0,43,0.00,CLR,,0.00,WeatherDisplay:10.37,2013-02-20 08:45:00,
2013-02-20 09:50:00,57.3,34.9,30.02,North,0,0.0,0.0,43,0.00,CLR,,0.00,WeatherDisplay:10.37,2013-02-20 08:50:00,
2013-02-20 09:55:00,57.3,34.9,30.02,North,0,0.0,0.0,43,0.00,CLR,,0.00,WeatherDisplay:10.37,2013-02-20 08:55:00,
2013-02-20 10:00:00,57.3,34.9,30.02,North,0,0.0,0.0,43,0.00,CLR,,0.00,WeatherDisplay:10.37,2013-02-20 09:00:00,
2013-02-20 10:05:00,57.3,34.9,30.02,North,0,0.0,0.0,43,0.00,CLR,,0.00,WeatherDisplay:10.37,2013-02-20 09:05:00,
2013-02-20 14:40:00,52.0,35.4,30.37,SW,225,3.8,0.0,53,0.00,CLR,,0.00,WeatherDisplay:10.37,2013-02-20 13:40:00,
2013-02-20 14:45:00,59.7,34.0,30.03,SSW,202,3.5,3.5,38,0.00,CLR,,0.00,WeatherDisplay:10.37,2013-02-20 13:45:00,
2013-02-20 14:50:00,58.1,33.9,30.03,NNE,22,5.8,0.0,40,0.00,CLR,,0.00,WeatherDisplay:10.37,2013-02-20 13:50:00,
2013-02-20 14:56:00,57.9,34.3,30.03,ENE,68,1.2,0.0,41,0.00,CLR,,0.00,WeatherDisplay:10.37,2013-02-20 13:56:00,
2013-02-20 15:01:00,57.2,34.3,30.03,SW,225,3.5,3.5,42,0.00,CLR,,0.00,WeatherDisplay:10.37,2013-02-20 14:01:00,
2013-02-20 15:06:00,57.6,35.2,30.03,East,90,3.5,3.5,43,0.00,CLR,,0.00,WeatherDisplay:10.37,2013-02-20 14:06:00,
2013-02-20 15:11:00,57.4,35.0,30.02,SE,135,3.5,0.0,43,0.00,CLR,,0.00,WeatherDisplay:10.37,2013-02-20 14:11:00,
2013-02-20 19:34:00,57.3,34.9,30.02,North,0,0.0,0.0,43,0.00,CLR,,0.00,WeatherDisplay:10.37,2013-02-20 18:34:00,
2013-02-20 19:39:00,57.3,34.9,30.02,North,0,0.0,0.0,43,0.00,CLR,,0.00,WeatherDisplay:10.37,2013-02-20 18:39:00,